TimeEDT,TemperatureF,Dew PointF,Humidity,Sea Level PressureIn,VisibilityMPH,Wind Direction,Wind SpeedMPH,Gust SpeedMPH,PrecipitationIn,Events,Conditions,WindDirDegrees,DateUTC
12:00 AM,42.8,28.4,57,29.78,15.0,NNW,8.1,-,N/A,,Mostly Cloudy,330,2012-11-02 04:00:00
1:00 AM,42.8,30.2,61,29.79,15.0,NW,11.5,-,N/A,,Mostly Cloudy,320,2012-11-02 05:00:00
2:00 AM,42,29,50,29.79,15,NW,6.9,,,,Overcast,310,2012-11-02 06:00:00
2:00 AM,41.0,30.2,65,29.79,15.0,NW,5.8,-,N/A,,Overcast,310,2012-11-02 06:00:00
3:00 AM,41.0,30.2,65,29.80,15.0,West,9.2,-,N/A,,Overcast,280,2012-11-02 07:00:00
4:00 AM,41.0,28.4,61,29.81,15.0,NW,15.0,24.2,N/A,,Mostly Cloudy,320,2012-11-02 08:00:00
5:00 AM,41.0,30.2,65,29.81,15.0,NW,12.7,-,N/A,,Mostly Cloudy,320,2012-11-02 09:00:00
6:00 AM,41.0,28.4,61,29.82,15.0,NW,10.4,-,N/A,,Overcast,320,2012-11-02 10:00:00
7:00 AM,41.0,28.4,61,29.83,15.0,NW,10.4,19.6,N/A,,Overcast,310,2012-11-02 11:00:00
8:00 AM,40,30,56,29.86,15,NW,15.0,,,,Overcast,320,2012-11-02 12:00:00
8:00 AM,41.0,30.2,65,29.86,15.0,NW,15.0,-,N/A,,Overcast,320,2012-11-02 12:00:00
8:47 AM,-9999,-9999,N/A,-9999,6.0,North,17.3,-,N/A,,Light Drizzle,350,2012-11-02 12:47:00
9:00 AM,37.4,33.8,87,29.88,6.0,NNW,10.4,18.4,N/A,,Light Drizzle,330,2012-11-02 13:00:00
9:35 AM,-9999,-9999,N/A,-9999,15.0,NW,11.5,-,N/A,,Overcast,320,2012-11-02 13:35:00
10:00 AM,37.4,33.8,87,29.91,15.0,North,13.8,-,N/A,,Mostly Cloudy,10,2012-11-02 14:00:00
11:00 AM,39.2,30.2,70,29.93,15.0,NNW,18.4,-,N/A,,Mostly Cloudy,330,2012-11-02 15:00:00
12:00 PM,39.2,26.6,61,29.94,15.0,NNW,15.0,23.0,N/A,,Mostly Cloudy,340,2012-11-02 16:00:00
1:00 PM,41.0,26.6,57,29.96,15.0,NNW,15.0,-,N/A,,Mostly Cloudy,330,2012-11-02 17:00:00
2:00 PM,40,26,44,29.97,15,NNW,19.6,,,,Partly Cloudy,340,2012-11-02 18:00:00
2:00 PM,41.0,24.8,53,29.97,15.0,NNW,15.0,25.3,N/A,,Mostly Cloudy,330,2012-11-02 18:00:00
3:00 PM,41.0,26.6,57,29.98,15.0,NW,12.7,23.0,N/A,,Mostly Cloudy,310,2012-11-02 19:00:00
4:00 PM,41.0,26.6,57,29.99,15.0,NNW,13.8,-,N/A,,Overcast,330,2012-11-02 20:00:00
5:00 PM,41.0,26.6,57,30.00,15.0,NNW,10.4,-,N/A,,Overcast,330,2012-11-02 21:00:00
6:00 PM,41.0,28.4,61,30.01,15.0,North,9.2,-,N/A,,Overcast,350,2012-11-02 22:00:00
7:00 PM,41.0,30.2,65,30.03,15.0,North,6.9,-,N/A,,Overcast,350,2012-11-02 23:00:00
8:00 PM,40,30,56,30.05,15,NNW,6.9,,,,Overcast,340,2012-11-03 00:00:00
8:00 PM,41.0,30.2,65,30.05,15.0,NNW,6.9,-,N/A,,Overcast,340,2012-11-03 00:00:00
9:00 PM,39.2,30.2,70,30.06,15.0,NNW,5.8,-,N/A,,Overcast,340,2012-11-03 01:00:00
10:00 PM,39.2,28.4,65,30.06,15.0,NNW,4.6,-,N/A,,Overcast,340,2012-11-03 02:00:00
11:00 PM,39.2,28.4,65,30.07,15.0,North,10.4,-,N/A,,Overcast,350,2012-11-03 03:00:00